Regional Weather Roundup
Issued by NWS

Home | Current Version | Previous Version | Graphics & Text | Print | Product List | Glossary On
Versions: 1 2 3 4 5 6 7 8 9 10 11 12 13 14 15 16 17 18 19 20 21 22 23 24 25 26 27
000
ASUS45 KBOU 221307
RWRCO

WEATHER ROUNDUP FOR COLORADO
NATIONAL WEATHER SERVICE DENVER/BOULDER CO
700 AM MDT MON MAY 22 2017

NOTE: "FAIR" INDICATES FEW OR NO CLOUDS BELOW 12000 FEET WITH NO
SIGNIFICANT WEATHER AND/OR OBSTRUCTIONS TO VISIBILITY.

COZ001>005-013-030-031-221400-
...NORTHWEST COLORADO...

CITY           SKY/WX    TMP DP  RH WIND       PRES   REMARKS
CRAIG          CLOUDY    34  32  92 CALM      30.30R
HAYDEN         FAIR      36  30  80 E7        30.29R
MEEKER         CLOUDY    37  35  92 CALM      30.30R
RABBIT EARS PA FAIR      28  27  93 W10       30.35S WCI  19
STEAMBOAT SPGS PTSUNNY   32  31  98 CALM      30.30R
WALDEN           N/A     34  32  93 CALM      30.32S
$$

COZ006>008-011-221400-
...WEST CENTRAL VALLEYS...

CITY           SKY/WX    TMP DP  RH WIND       PRES   REMARKS
GRAND JUNCTION FAIR      50  42  74 CALM      30.22R
MONTROSE       FAIR      42  40  92 SE3       30.27R
EAGLE          PTSUNNY   43  39  87 E3        30.30S
RIFLE          PTSUNNY   44  40  85 CALM      30.25S
DELTA          FAIR      48  40  74 CALM      30.24R
NUCLA          FAIR      41  36  81 SE5       30.27R
$$

COZ017>023-064>068-221400-
...SOUTHWEST COLORADO...

CITY           SKY/WX    TMP DP  RH WIND       PRES   REMARKS
DURANGO        FAIR      36  30  79 E5        30.19R
CORTEZ         FAIR      38  35  89 E6        30.21R
PAGOSA SPRINGS FAIR      37  29  72 CALM      30.23R
TELLURIDE      FAIR      35  35 100 CALM      30.32R
WOLF CREEK PAS FAIR      28  23  80 N6        30.41R WCI  22
$$

COZ009-010-012-014-032>034-037-058>063-221400-
...CENTRAL COLORADO...

CITY           SKY/WX    TMP DP  RH WIND       PRES   REMARKS
ASPEN          CLOUDY    40  37  89 SE3       30.28R
BUENA VISTA    CLOUDY    40  36  87 SE3       30.28R
COPPER MTN     FOG       30  27  86 MISG      30.36S VSB<1/4
BERTHOUD PASS  HAZE      19   9  63 NW16G22   30.34S VSB<1/4 WCI   5
COTTONWOOD PAS CLOUDY    36  34  93 E3        30.31R FOG
GUNNISON       PTSUNNY   38  35  89 NW6       30.29R
KREMMLING      FAIR      41  36  81 E3        30.31S
LEADVILLE      CLOUDY    34  23  64 N13       30.30R WCI  25
MONARCH PASS   CLOUDY    28  28 100 W10       30.46R WCI  19
SALIDA         CLOUDY    42  40  90 CALM      30.35R
SUNLIGHT       CLOUDY    30  30 100 CALM      30.39S FOG
WILKERSON PASS FOG       28  28 100 NE8       30.36S VSB 3/4 WCI  20
$$

COZ069>075-221400-
...SAN LUIS VALLEY/SANGRE DE CRISTO MOUNTAINS...

CITY           SKY/WX    TMP DP  RH WIND       PRES   REMARKS
ALAMOSA        CLOUDY    41  34  76 NE3       30.23R
DEL NORTE      FAIR      38  29  71 SE3       30.25R
LA VETA PASS   DRZL/FOG  34  32  93 NE8       30.40S VSB 1/4 WCI  27
SAGUACHE       FAIR      43  32  65 N14       30.25R
$$

COZ035-036-038>040-221400-
...NORTHERN COLORADO FRONT RANGE...

CITY           SKY/WX    TMP DP  RH WIND       PRES   REMARKS
DENVER INTL AP FAIR      46  43  89 SW8       30.19S
DMNS CITY PARK   N/A     49  44  84 SE7       30.20S
AURORA         MOSUNNY   45  44  99 SW6       30.21S
FRONT RANGE AP MOSUNNY   43  41  93 SW7       30.22R
ERIE MUNI ARPT FAIR      45  43  94 CALM      30.19S
BOULDER MUN AP FAIR      48  39  71 SW3       30.18S
CENTENNIAL     PTSUNNY   47  42  83 W8        30.21S
BROOMFIELD     MOSUNNY   45  39  81 CALM      30.20S
FORT COLLINS   FAIR      44  39  82 CALM      30.19S
LONGMONT       FAIR      47  42  84 CALM      30.20F HAZE
$$

COZ041-046-047-076>085-087-088-221400-
...PIKES PEAK/PALMER DIVIDE AND SOUTHERN FOOTHILLS...

CITY           SKY/WX    TMP DP  RH WIND       PRES   REMARKS
COLO. SPRINGS  PTSUNNY   45  42  89 NW7       30.23S
A. F. ACADEMY  PTSUNNY   42  42  97 CALM      30.22S
SCHRIEVER AFB  PTSUNNY   45  39  81 W15       30.22S
CHEYENNE MTN   PTSUNNY   43  36  74 NW13G25   30.17S
ELLICOTT       LGT RAIN N/A N/A N/A CALM      30.20F
FALCON         PTSUNNY   43  38  83 W7        30.23F
FORT CARSON    CLOUDY    44  40  85 N6        30.21S
LIMON          FAIR      45  44  97 W6        30.18S
MONUMENT HILL  FAIR      41  37  87 W5        30.25S
CANON CITY     NOT AVBL
WALSENBURG     CLOUDY    45  43  93 N10       30.24R
TRINIDAD       LGT RAIN  46  43  89 N10       30.22R FOG
$$

COZ042>045-048>051-090-091-221400-
...NORTHEAST COLORADO...

CITY           SKY/WX    TMP DP  RH WIND       PRES   REMARKS
GREELEY ARPT   FAIR      45  42  89 CALM      30.19R
AKRON          FAIR      46  44  93 W10       30.14F
BURLINGTON     CLOUDY    50  47  89 W7        30.13F
WRAY           FAIR      48  48 100 W6        30.12S
YUMA           FAIR      46  45  93 W13       30.13S
STERLING       FAIR      46  41  81 SW3       30.13S
HOLYOKE        NOT AVBL
FORT MORGAN    FAIR      44  43  95 W7        30.17S FOG
$$

COZ086-089-092>099-221400-
...SOUTHEAST COLORADO...

CITY           SKY/WX    TMP DP  RH WIND       PRES   REMARKS
PUEBLO         LGT RAIN  48  44  86 N8        30.21S
LA JUNTA       CLOUDY    51  46  83 E3        30.17S
LAMAR          CLOUDY    52  48  86 CALM      30.13S
SPRINGFIELD      N/A     49  47  93 CALM      30.14F
$$




USA.gov is the U.S. government's official web portal to all federal, state and local government web resources and services.